Location: Aragoneses
(41.0275°N, 4.3847°W)
Time: 16:21:24
(UTC+00:00)

SPOT 1/Viking Rocket - Pass Details

Date: 16 March 2026
Orbit: 773 x 789 km, 98.2° (Epoch: 18 April)

Event Time Altitude Azimuth Distance (km) Brightness Sun altitude
Rises 19:31:44 0° 207° (SSW) 3,250 7.0 -13.3°
Reaches altitude 10° 19:34:45 10° 225° (SW) 2,331 6.5 -13.9°
Maximum altitude 19:38:14 18° 268° (W) 1,831 6.5 -14.5°
Drops below altitude 10° 19:41:46 10° 312° (NW) 2,349 7.0 -15.2°
Sets 19:44:50 0° 330° (NNW) 3,286 7.4 -15.7°
